{"data":{"norad_id":65356,"epoch":"2026-05-25T01:29:14.980416Z","epoch_age_seconds":63503,"freshness":"FRESH","line1":"1 65356U 25190F   26145.06197894  .00009384  00000+0  32854-3 0  9992","line2":"2 65356  53.1589 173.7533 0001424  83.9892 276.1271 15.30203430 40974","mean_motion":15.3020343,"eccentricity":0.0001424,"inclination_deg":53.1589,"raan_deg":173.7533,"arg_perigee_deg":83.9892,"mean_anomaly_deg":276.1271,"bstar":0.00032854,"rev_number":4097,"period_min":94.105134766297,"perigee_km":474.2289122004,"apogee_km":476.18074395303,"semimajor_km":6853.3418280767,"source":"CELESTRAK","updated_at":"2026-05-25T13:38:20.765673Z"}}